Greenville, WI

11:11 PM CST on December 02, 2016 (GMT -0600)
Outagamie County Regional

Weather History for KATW - January, 2013

Change the Weather History Date:

Friday, January 11, 2013

  Actual Average Record
Temperature  
Mean Temperature 37 °F -  
Max Temperature 41 °F 22 °F 51 °F (2012)
Min Temperature 33 °F 4 °F -23 °F (1979)
Degree Days  
Heating Degree Days 28    
Moisture  
Dew Point 37 °F    
Average Humidity 100    
Maximum Humidity 100    
Minimum Humidity 100    
Precipitation  
Precipitation 0.10 in - - ()
Sea Level Pressure  
Sea Level Pressure 29.68 in    
Wind  
Wind Speed 8 mph (South)    
Max Wind Speed 16 mph    
Max Gust Speed 20 mph    
Visibility 2 miles    
Events Fog , Rain    
Averages and records for this station are not official NWS values.
T = Trace of Precipitation, MM = Missing Value Source: NWS Daily Summary

Daily Weather History Graph

Daily Weather History Graph

Search for Another Location

Airport or City:

Trip Planner

Search our weather history database for the weather conditions in past years. The results will help you decide how hot, cold, wet, or windy it might be!

Date:

Astronomy

Jan. 11, 2013 Rise Set
Actual Time 7:28 AM CST 4:36 PM CST
Civil Twilight 6:55 AM CST 5:09 PM CST
Nautical Twilight 6:19 AM CST 5:45 PM CST
Astronomical Twilight 5:44 AM CST 6:20 PM CST
Moon 6:59 AM CST (1/11) 4:56 PM CST (1/11)
Length of Visible Light 10h 13m
Length of Day
9h 08m
Waning Crescent, 0% of the Moon is Illuminated
Jan 11
Waning Crescent
Jan 11
New
Jan 18
First Quarter
Jan 26
Full
Feb 3
Last Quarter

Hourly Weather History & Observations

Time (CST) Temp. Windchill Dew Point Humidity Pressure Visibility Wind Dir Wind Speed Gust Speed Precip Events Conditions
12:15 AM 33.8 °F 26.4 °F 33.8 °F 100% 29.87 in 3.0 mi SE 9.2 mph - 0.04 in Rain Rain
12:35 AM 33.8 °F 25.8 °F 33.8 °F 100% 29.85 in 3.0 mi SE 10.4 mph - 0.07 in Rain Rain
12:55 AM 33.8 °F 25.3 °F 33.8 °F 100% 29.85 in 4.0 mi SE 11.5 mph - 0.09 in Rain Light Rain
1:15 AM 33.8 °F 26.4 °F 33.8 °F 100% 29.83 in 5.0 mi SE 9.2 mph - 0.01 in Rain Light Rain
1:35 AM 33.8 °F 25.8 °F 33.8 °F 100% 29.82 in 4.0 mi SE 10.4 mph - 0.01 in   Overcast
1:55 AM 33.8 °F 24.8 °F 33.8 °F 100% 29.79 in 2.0 mi ESE 12.7 mph - 0.01 in   Drizzle
2:15 AM 33.8 °F 23.5 °F 33.8 °F 100% 29.75 in 3.0 mi SE 16.1 mph 19.6 mph N/A   Light Drizzle
2:35 AM 33.8 °F 27.0 °F 33.8 °F 100% 29.79 in 4.0 mi South 8.1 mph - N/A   Overcast
2:55 AM 33.8 °F 30.8 °F 33.8 °F 100% 29.78 in 2.5 mi SSW 3.5 mph - N/A   Overcast
3:15 AM 33.8 °F 30.8 °F 33.8 °F 100% 29.77 in 2.5 mi SSW 3.5 mph - N/A   Overcast
3:35 AM 33.8 °F - 33.8 °F 100% 29.75 in 1.0 mi Calm Calm - N/A   Overcast
3:55 AM 33.8 °F - 33.8 °F 100% 29.73 in 0.8 mi Calm Calm - N/A   Overcast
4:15 AM 33.8 °F 29.6 °F 33.8 °F 100% 29.71 in 0.5 mi NE 4.6 mph - N/A Fog Fog
5:20 AM 35.6 °F 32.8 °F 35.6 °F 100% 29.69 in 0.2 mi Variable 3.5 mph - N/A Fog Fog
5:45 AM 35.6 °F - 35.6 °F 100% 29.68 in 0.2 mi Calm Calm - N/A Fog Fog
6:45 AM 35.6 °F - 35.6 °F 100% 29.68 in 0.5 mi Calm Calm - N/A Fog Fog
7:20 AM 35.6 °F - 35.6 °F 100% 29.67 in 0.2 mi Calm Calm - N/A Fog Fog
7:45 AM 35.6 °F - 35.6 °F 100% 29.66 in 0.2 mi Calm Calm - N/A   Unknown
8:45 AM 35.6 °F - 35.6 °F 100% 29.67 in 0.2 mi Calm Calm - N/A Fog Fog
9:45 AM 35.6 °F 30.7 °F 35.6 °F 100% 29.66 in 0.2 mi SSW 5.8 mph - N/A Fog Fog
10:45 AM 37.4 °F 32.1 °F 37.4 °F 100% 29.64 in 1.0 mi SW 6.9 mph - N/A   Mostly Cloudy
11:05 AM 37.4 °F 31.4 °F 37.4 °F 100% 29.65 in 3.0 mi SW 8.1 mph - N/A   Mostly Cloudy
11:45 AM 37.4 °F 32.8 °F 37.4 °F 100% 29.63 in 3.0 mi Variable 5.8 mph - N/A   Mostly Cloudy
12:45 PM 37.4 °F 32.8 °F 37.4 °F 100% 29.63 in 1.0 mi Variable 5.8 mph - N/A   Mostly Cloudy
1:05 PM 37.4 °F 32.8 °F 37.4 °F 100% - 0.2 mi Variable 5.8 mph - N/A Fog Fog
1:45 PM 37.4 °F 30.3 °F 37.4 °F 100% 29.66 in 1.5 mi South 10.4 mph - N/A Fog Fog
2:45 PM 35.6 °F 29.2 °F 35.6 °F 100% 29.65 in 1.5 mi South 8.1 mph - N/A   Mist
3:45 PM 37.4 °F 31.4 °F 37.4 °F 100% 29.64 in 1.5 mi South 8.1 mph - N/A   Mist
4:45 PM 35.6 °F 28.6 °F 35.6 °F 100% 29.62 in 0.8 mi SSE 9.2 mph - N/A   Mist
5:45 PM 37.4 °F 30.8 °F 37.4 °F 100% 29.65 in 0.4 mi SSE 9.2 mph - N/A Fog Fog
6:45 PM 37.4 °F 31.4 °F 37.4 °F 100% 29.64 in 0.2 mi SSE 8.1 mph - N/A Fog Fog
7:45 PM 39.2 °F 32.5 °F 39.2 °F 100% 29.60 in 0.2 mi SSE 10.4 mph - N/A Fog Fog
8:45 PM 39.2 °F 33.6 °F 39.2 °F 100% 29.62 in 0.2 mi SSE 8.1 mph - N/A Fog Fog
9:25 PM 39.2 °F 33.0 °F 39.2 °F 100% 29.60 in 0.5 mi South 9.2 mph - N/A Fog Fog
9:45 PM 41.0 °F 35.8 °F 41.0 °F 100% 29.60 in 1.0 mi South 8.1 mph - N/A   Overcast
9:55 PM 41.0 °F 35.8 °F 41.0 °F 100% 29.59 in 1.0 mi South 8.1 mph - N/A   Overcast
10:15 PM 41.0 °F 37.1 °F 41.0 °F 100% 29.58 in 1.2 mi South 5.8 mph - N/A   Overcast
10:35 PM 39.2 °F 34.2 °F 39.2 °F 100% 29.58 in 1.2 mi SSW 6.9 mph - N/A   Overcast
10:45 PM 41.0 °F 36.4 °F 41.0 °F 100% 29.58 in 2.0 mi SSW 6.9 mph - N/A   Overcast
10:55 PM 39.2 °F 33.6 °F 39.2 °F 100% 29.58 in 1.0 mi South 8.1 mph - N/A   Overcast
11:35 PM 41.0 °F 34.3 °F 41.0 °F 100% 29.56 in 2.0 mi South 11.5 mph - N/A   Scattered Clouds
11:55 PM 41.0 °F 34.3 °F 41.0 °F 100% 29.55 in 3.0 mi South 11.5 mph - N/A   Scattered Clouds